Location: Unspecified
(51.0950°N, 12.9690°E)
Time: 17:24:13
(UTC+00:00)

BREEZE-M DEB (TANK) - Pass Details

Date: 28 October 2021
Orbit: 354 x 14884 km, 49.5° (Epoch: 02 December)

Event Time Altitude Azimuth Distance (km) Brightness Sun altitude
Rises 17:28:02 0° 267° (W) 9,538 11.5 -16.0°
Reaches altitude 10° 17:37:11 10° 268° (W) 6,288 10.0 -17.4°
Maximum altitude 17:50:35 79° 186° (S) 1,036 4.6 -19.6°
Enters shadow 17:52:24 39° 105° (ESE) 1,181 4.4 -19.8°
